Change the Weather History Date:

Thursday, October 4, 2012

  Actual Average (KIRK) Record (KIRK)
Temperature  
Mean Temperature 53 °F 67 °F  
Max Temperature 61 °F 78 °F 91 °F (1938)
Min Temperature 46 °F 55 °F 32 °F (1950)
Degree Days  
Heating Degree Days 12 2  
Month to date heating degree days 12  
Since 1 July heating degree days 19  
Cooling Degree Days 0 3  
Month to date cooling degree days 46  
Year to date cooling degree days 890  
Growing Degree Days 3 (Base 50)    
Moisture  
Dew Point 45 °F    
Average Humidity 75    
Maximum Humidity 90    
Minimum Humidity 57    
Precipitation  
Precipitation 0.09 in 0.16 in 3.91 in (1991)
Month to date precipitation 1.55  
Year to date precipitation 28.96  
Sea Level Pressure  
Sea Level Pressure 30.16 in    
Wind  
Wind Speed 4 mph (SSW)    
Max Wind Speed 7 mph    
Max Gust Speed 22 mph    
T = Trace of Precipitation, MM = Missing Value Source: NWS Daily Summary

Daily Weather History Graph

Daily Weather History Graph

Search for Another Location

Airport or City:

Trip Planner

Search our weather history database for the weather conditions in past years. The results will help you decide how hot, cold, wet, or windy it might be!

Date:

Astronomy

Oct. 04, 2012 Rise Set
Actual Time 7:13 AM CDT 6:51 PM CDT
Civil Twilight 6:47 AM CDT 7:17 PM CDT
Nautical Twilight 6:15 AM CDT 7:49 PM CDT
Astronomical Twilight 5:44 AM CDT 8:20 PM CDT
Moon 9:27 PM CDT (10/4) 11:31 AM CDT (10/4)
Length of Visible Light 12h 30m
Length of Day
11h 37m
Waning Gibbous, 82% of the Moon is Illuminated
Oct 4
Waning Gibbous
Oct 8
Last Quarter
Oct 15
New
Oct 21
First Quarter
Oct 29
Full

Hourly Weather History & Observations

Time (CDT) Temp. Dew Point Humidity Pressure Visibility Wind Dir Wind Speed Gust Speed Precip Events Conditions
12:52 AM 57.9 °F 46.9 °F 67% 29.99 in - SSE 4.6 mph - N/A   Unknown
1:52 AM 57.9 °F 48.0 °F 70% 29.99 in - SSE 3.5 mph - N/A   Unknown
2:52 AM 55.9 °F 48.0 °F 75% 30.00 in - SSE 3.5 mph - N/A   Unknown
3:52 AM 55.0 °F 48.9 °F 80% 29.99 in - Calm Calm - N/A   Unknown
4:52 AM 57.9 °F 48.9 °F 72% 29.99 in - South 5.8 mph - N/A   Unknown
5:52 AM 60.1 °F 50.0 °F 69% 30.04 in - Variable 4.6 mph - N/A   Unknown
6:52 AM 57.0 °F 50.0 °F 77% 30.06 in - Calm Calm - N/A   Unknown
7:52 AM 57.9 °F 50.0 °F 75% 30.09 in - WNW 5.8 mph - N/A   Unknown
8:52 AM 60.1 °F 46.0 °F 60% 30.11 in - Variable 4.6 mph - N/A   Unknown
9:52 AM 57.0 °F 42.1 °F 57% 30.17 in - NNW 6.9 mph - N/A   Unknown
10:52 AM 57.9 °F 43.0 °F 58% 30.19 in - NW 6.9 mph - N/A   Unknown
11:52 AM 57.0 °F 44.1 °F 62% 30.20 in - Variable 6.9 mph 18.4 mph N/A   Unknown
12:52 PM 54.0 °F 42.1 °F 64% 30.22 in - Variable 6.9 mph - N/A   Unknown
1:52 PM 53.1 °F 43.0 °F 69% 30.23 in - Variable 6.9 mph 21.9 mph N/A   Unknown
2:52 PM 48.9 °F 39.9 °F 71% 30.25 in - Variable 6.9 mph 17.3 mph N/A   Unknown
3:52 PM 46.9 °F 42.1 °F 83% 30.25 in - Variable 5.8 mph - 0.03 in   Unknown
4:52 PM 48.0 °F 44.1 °F 86% 30.25 in - Calm Calm - 0.01 in   Unknown
5:52 PM 48.0 °F 44.1 °F 86% 30.25 in - SSW 3.5 mph - 0.01 in   Unknown
6:52 PM 48.0 °F 45.0 °F 89% 30.25 in - Calm Calm - N/A   Unknown
7:52 PM 48.0 °F 45.0 °F 89% 30.25 in - Calm Calm - N/A   Unknown
8:52 PM 48.9 °F 45.0 °F 86% 30.25 in - Calm Calm - N/A   Unknown
9:52 PM 48.9 °F 45.0 °F 86% 30.25 in - Calm Calm - N/A   Unknown
10:52 PM 48.9 °F 46.0 °F 90% 30.26 in - Calm Calm - 0.04 in   Unknown
11:52 PM 48.9 °F 43.0 °F 80% 30.27 in - Calm Calm - N/A   Unknown